This demonstration page uses our WeatherBlox Daily Observations layout. Learn more.

Left ArrowRight Arrow

Hourly Observations for December 8, 2017

Temp ( °F °C ) Dew Point ( °F °C ) Humidity (%) Winds ( mph kmh ) Pressure ( in mb ) Visibility ( mi km ) Precip ( " mm )
12:15 am 00:15 Clear 39 4 27 -3 61 61 NW 10 17 30.09 1019 10 16 N/A
12:35 am 00:35 Clear 39 4 27 -3 61 61 NW 12 19 30.12 1020 10 16 N/A
12:55 am 00:55 Clear 37 3 27 -3 65 65 NW 6 9 30.12 1020 10 16 N/A
1:15 am 01:15 Clear 37 3 27 -3 65 65 NNW 6 9 30.12 1020 10 16 N/A
1:35 am 01:35 Clear 37 3 27 -3 65 65 NW 10 17 30.12 1020 10 16 N/A
1:55 am 01:55 Clear 37 3 27 -3 65 65 NNW 10 17 30.12 1020 10 16 N/A
2:15 am 02:15 Clear 37 3 25 -4 60 60 NNW 13 20 30.12 1020 10 16 N/A
2:35 am 02:35 Clear 36 2 25 -4 65 65 NNW 10 17 30.12 1020 10 16 N/A
2:55 am 02:55 Clear 37 3 25 -4 60 60 NNW 10 17 30.12 1020 10 16 N/A
3:15 am 03:15 Clear 36 2 25 -4 65 65 NNW 8 13 30.12 1020 10 16 N/A
3:35 am 03:35 Clear 37 3 25 -4 60 60 NW 10 17 30.12 1020 10 16 N/A
3:55 am 03:55 Clear 37 3 23 -5 56 56 N 5 7 30.12 1020 10 16 N/A
4:15 am 04:15 Clear 37 3 25 -4 60 60 N 5 7 30.12 1020 10 16 N/A
4:35 am 04:35 Clear 37 3 25 -4 60 60 N 7 11 30.15 1021 10 16 N/A
4:55 am 04:55 Clear 36 2 25 -4 65 65 NNE 5 7 30.12 1020 10 16 N/A
5:15 am 05:15 Clear 36 2 25 -4 65 65 NNE 6 9 30.12 1020 10 16 N/A
5:35 am 05:35 Clear 36 2 25 -4 65 65 N 6 9 30.12 1020 10 16 N/A
5:55 am 05:55 Clear 36 2 25 -4 65 65 N 6 9 30.12 1020 10 16 N/A
6:15 am 06:15 Clear 36 2 23 -5 60 60 N 5 7 30.12 1020 10 16 N/A
6:35 am 06:35 Partly Cloudy 36 2 23 -5 60 60 N 6 9 30.12 1020 10 16 N/A
6:55 am 06:55 Mostly Cloudy 36 2 23 -5 60 60 undefined N/A 30.12 1020 10 16 N/A
7:15 am 07:15 Cloudy 36 2 25 -4 65 65 NNE 3 6 30.15 1021 10 16 N/A
7:35 am 07:35 Mostly Cloudy 36 2 25 -4 65 65 N 3 6 30.15 1021 10 16 N/A
7:55 am 07:55 Partly Cloudy 36 2 25 -4 65 65 NE 3 6 30.15 1021 10 16 N/A
8:15 am 08:15 Sunny 36 2 25 -4 65 65 N N/A 30.15 1021 10 16 N/A
8:35 am 08:35 Partly Cloudy 36 2 25 -4 65 65 NNE 3 6 30.15 1021 10 16 N/A
8:55 am 08:55 Mostly Cloudy 36 2 25 -4 65 65 N 5 7 30.15 1021 10 16 N/A
9:15 am 09:15 Cloudy 36 2 25 -4 65 65 N 5 7 30.15 1021 10 16 N/A
9:35 am 09:35 Cloudy 36 2 25 -4 65 65 N 5 7 30.15 1021 10 16 N/A
9:55 am 09:55 Cloudy 36 2 25 -4 65 65 N 3 6 30.18 1022 10 16 N/A
10:15 am 10:15 Partly Cloudy 36 2 25 -4 65 65 N N/A 30.15 1021 10 16 N/A
10:35 am 10:35 Partly Cloudy 37 3 27 -3 65 65 N N/A 30.15 1021 10 16 N/A
10:55 am 10:55 Sunny 37 3 27 -3 65 65 NW 3 6 30.15 1021 10 16 N/A
11:15 am 11:15 Partly Cloudy 37 3 25 -4 60 60 N N/A 30.15 1021 10 16 N/A
11:35 am 11:35 Partly Cloudy 37 3 27 -3 65 65 N 3 6 30.15 1021 10 16 N/A
11:55 am 11:55 Sunny 37 3 27 -3 65 65 N N/A 30.15 1021 10 16 N/A
12:15 pm 12:15 Partly Cloudy 37 3 25 -4 60 60 N N/A 30.12 1020 10 16 N/A
12:35 pm 12:35 Mostly Cloudy 37 3 27 -3 65 65 N N/A 30.12 1020 10 16 N/A
12:55 pm 12:55 Mostly Cloudy 37 3 25 -4 60 60 N N/A 30.09 1019 10 16 N/A
1:15 pm 13:15 Partly Cloudy 37 3 25 -4 60 60 N N/A 30.09 1019 10 16 N/A
1:35 pm 13:35 Sunny 39 4 27 -3 61 61 N N/A 30.09 1019 10 16 N/A
1:55 pm 13:55 Mostly Cloudy 37 3 25 -4 60 60 N N/A 30.09 1019 10 16 N/A
2:15 pm 14:15 Cloudy 37 3 25 -4 60 60 N N/A 30.09 1019 10 16 N/A
2:35 pm 14:35 Cloudy 39 4 25 -4 56 56 N N/A 30.09 1019 10 16 N/A
2:55 pm 14:55 Mostly Cloudy 37 3 25 -4 60 60 N N/A 30.09 1019 10 16 N/A
3:15 pm 15:15 Partly Cloudy 39 4 25 -4 56 56 N N/A 30.09 1019 10 16 N/A
3:35 pm 15:35 Mostly Cloudy 37 3 25 -4 60 60 N N/A 30.09 1019 10 16 N/A
3:55 pm 15:55 Cloudy 37 3 27 -3 65 65 N N/A 30.09 1019 10 16 N/A
4:15 pm 16:15 Cloudy 37 3 27 -3 65 65 N N/A 30.09 1019 10 16 N/A
4:35 pm 16:35 Cloudy 37 3 27 -3 65 65 N N/A 30.09 1019 10 16 N/A
4:55 pm 16:55 Cloudy 37 3 27 -3 65 65 N N/A 30.06 1018 10 16 N/A
5:15 pm 17:15 Mostly Cloudy 37 3 27 -3 65 65 ENE 3 6 30.06 1018 10 16 N/A
5:35 pm 17:35 Partly Cloudy 37 3 27 -3 65 65 N N/A 30.06 1018 10 16 N/A
5:55 pm 17:55 Clear 37 3 27 -3 65 65 N N/A 30.06 1018 10 16 N/A
6:15 pm 18:15 Partly Cloudy 37 3 27 -3 65 65 E 3 6 30.03 1017 10 16 N/A
6:35 pm 18:35 Partly Cloudy 37 3 27 -3 65 65 N N/A 30.06 1018 10 16 N/A
6:55 pm 18:55 Partly Cloudy 37 3 27 -3 65 65 N N/A 30.06 1018 10 16 N/A
7:15 pm 19:15 Partly Cloudy 36 2 27 -3 70 70 ENE 5 7 30.03 1017 10 16 N/A
7:35 pm 19:35 Partly Cloudy 36 2 27 -3 70 70 N N/A 30.03 1017 10 16 N/A
7:55 pm 19:55 Clear 37 3 27 -3 65 65 N N/A 30.03 1017 10 16 N/A
8:15 pm 20:15 Partly Cloudy 37 3 27 -3 65 65 N N/A 30.03 1017 10 16 N/A
8:35 pm 20:35 Partly Cloudy 36 2 27 -3 70 70 N N/A 30.03 1017 10 16 N/A
8:55 pm 20:55 Partly Cloudy 37 3 27 -3 65 65 N N/A 30.03 1017 10 16 N/A
9:15 pm 21:15 Cloudy 36 2 27 -3 70 70 N N/A 30.03 1017 10 16 N/A
9:35 pm 21:35 Cloudy 37 3 27 -3 65 65 N N/A 30.03 1017 10 16 N/A
9:55 pm 21:55 Cloudy 36 2 27 -3 70 70 N N/A 30.00 1016 10 16 N/A
10:15 pm 22:15 Mostly Cloudy 36 2 27 -3 70 70 N N/A 30.03 1017 10 16 N/A
10:35 pm 22:35 Mostly Cloudy 36 2 28 -2 75 75 N N/A 30.03 1017 10 16 N/A
10:55 pm 22:55 Cloudy 36 2 30 -1 81 81 N N/A 30.03 1017 10 16 N/A
11:15 pm 23:15 Cloudy 36 2 30 -1 81 81 N N/A 30.03 1017 10 16 N/A
11:35 pm 23:35 Cloudy 36 2 30 -1 81 81 N N/A 30.03 1017 10 16 N/A
11:55 pm 23:55 Cloudy 36 2 30 -1 81 81 N N/A 30.03 1017 10 16 N/A

Powered by AerisWeather